Location: ???????????
(54.6970°N, 39.1477°E)
Time: 03:34:57
(UTC+00:00)

USA 59 Rocket - Pass Details

Date: 19 May 2025
Orbit: 373 x 1696 km, 63.3° (Epoch: 14 June)

Event Time Altitude Azimuth Distance (km) Brightness Sun altitude
Exits shadow 22:09:30 - 262° (W) 1,807 2.3 -14.6°
Reaches altitude 10° 22:10:27 10° 268° (W) 1,423 1.8 -14.5°
Maximum altitude 22:13:12 31° 334° (NNW) 696 0.9 -14.5°
Drops below altitude 10° 22:15:55 10° 39° (NE) 1,414 3.0 -14.4°
Sets 22:18:09 0° 51° (NE) 2,334 4.0 -14.3°
